Location: Dennis Manor
(64.8292°N, 147.5397°W)
Time: 08:54:06
(UTC+00:00)

Envisat - Pass Details

Date: 01 November 2020
Orbit: 764 x 766 km, 98.1° (Epoch: 05 December)

Event Time Altitude Azimuth Distance (km) Brightness Sun altitude
Rises 15:28:48 0° 18° (NNE) 3,251 6.4 -13.8°
Reaches altitude 10° 15:31:15 10° 26° (NNE) 2,320 5.8 -13.6°
Maximum altitude 15:36:05 41° 96° (E) 1,112 4.5 -13.0°
Drops below altitude 10° 15:40:52 10° 167° (SSE) 2,305 5.8 -12.5°
Sets 15:43:18 0° 174° (S) 3,227 6.4 -12.3°
